�������r�C�����j�^�v���󋵏��
Date,Time,5�C6���@���p�r�C��,����,����(m/s)
2022/03/08,00:00,3.9,-,CALM
2022/03/08,00:10,4.2,��,0.8
2022/03/08,00:20,3.9,�쐼,0.8
2022/03/08,00:30,3.9,��,1.4
2022/03/08,00:40,3.9,��,1.2
2022/03/08,00:50,4.1,�k��,2.0
2022/03/08,01:00,4.3,�k�k��,2.9
2022/03/08,01:10,3.9,�k�k��,2.5
2022/03/08,01:20,4.1,�k�k��,2.3
2022/03/08,01:30,3.9,�k�k��,2.0
2022/03/08,01:40,3.9,�k�k��,2.5
2022/03/08,01:50,4.0,�k�k��,1.7
2022/03/08,02:00,4.2,�k�k��,2.5
2022/03/08,02:10,3.9,�k��,2.3
2022/03/08,02:20,3.9,���k��,2.3
2022/03/08,02:30,4.0,���쐼,1.5
2022/03/08,02:40,4.0,��,0.9
2022/03/08,02:50,4.1,��,0.9
2022/03/08,03:00,4.0,�k��,1.4
2022/03/08,03:10,4.2,��,1.7
2022/03/08,03:20,4.2,���k��,2.3
2022/03/08,03:30,4.0,���k��,2.3
2022/03/08,03:40,4.1,���k��,3.3
2022/03/08,03:50,4.1,���k��,2.6
2022/03/08,04:00,4.0,���k��,1.1
2022/03/08,04:10,4.1,�쐼,1.2
2022/03/08,04:20,3.9,��,1.4
2022/03/08,04:30,4.1,�쓌,1.4
2022/03/08,04:40,4.0,��쓌,1.7
2022/03/08,04:50,3.8,��,1.1
2022/03/08,05:00,4.1,��쐼,0.6
2022/03/08,05:10,4.0,��,0.9
2022/03/08,05:20,4.1,���k��,1.1
2022/03/08,05:30,4.1,-,CALM
2022/03/08,05:40,3.9,�k��,1.2
2022/03/08,05:50,3.8,�k��,0.8
2022/03/08,06:00,4.1,�k��,0.6
2022/03/08,06:10,4.0,-,CALM
2022/03/08,06:20,3.9,-,CALM
2022/03/08,06:30,4.0,-,CALM
2022/03/08,06:40,4.0,-,CALM
2022/03/08,06:50,4.2,���k��,0.9
2022/03/08,07:00,4.0,���k��,1.9
2022/03/08,07:10,4.2,���k��,3.1
2022/03/08,07:20,3.9,��,2.3
2022/03/08,07:30,4.1,��,2.0
2022/03/08,07:40,4.1,��,2.9
2022/03/08,07:50,3.9,��,2.5
2022/03/08,08:00,4.1,��,2.2
2022/03/08,08:10,4.1,���쐼,1.4
2022/03/08,08:20,3.8,��쐼,0.8
2022/03/08,08:30,4.0,��,1.5
2022/03/08,08:40,4.0,���k��,2.3
2022/03/08,08:50,4.1,�k��,3.6
2022/03/08,09:00,4.0,�k�k��,3.7
2022/03/08,09:10,4.2,�k�k��,3.4
2022/03/08,09:20,4.2,�k,3.3
2022/03/08,09:30,4.2,�k�k��,4.5
2022/03/08,09:40,4.1,�k��,2.6
2022/03/08,09:50,3.9,���k��,4.4
2022/03/08,10:00,4.0,��,3.9
2022/03/08,10:10,4.0,��,3.5
2022/03/08,10:20,4.0,�k��,3.5
2022/03/08,10:30,4.1,���k��,3.7
2022/03/08,10:40,4.0,���쓌,4.1
2022/03/08,10:50,4.0,�쓌,4.4
2022/03/08,11:00,3.9,���쓌,4.1
2022/03/08,11:10,4.1,�쓌,4.5
2022/03/08,11:20,4.0,�쓌,5.2
2022/03/08,11:30,4.0,�쓌,5.6
2022/03/08,11:40,4.0,�쓌,5.3
2022/03/08,11:50,4.1,��쓌,5.6
2022/03/08,12:00,4.0,��쓌,5.5
2022/03/08,12:10,4.1,��쓌,5.1
2022/03/08,12:20,4.2,��쓌,6.7
2022/03/08,12:30,3.9,��쓌,4.8
2022/03/08,12:40,4.1,��쓌,4.7
2022/03/08,12:50,4.0,��쓌,4.8
2022/03/08,13:00,3.9,��쓌,5.3
2022/03/08,13:10,4.2,��쓌,5.1
2022/03/08,13:20,4.1,��쓌,5.2
2022/03/08,13:30,4.1,��쓌,5.3
2022/03/08,13:40,4.0,��쓌,5.6
2022/03/08,13:50,4.1,��쓌,6.3
2022/03/08,14:00,4.1,��쓌,5.4
2022/03/08,14:10,4.1,��쓌,5.6
2022/03/08,14:20,4.0,��쓌,5.1
2022/03/08,14:30,4.1,��쓌,5.5
2022/03/08,14:40,4.1,��쓌,4.8
2022/03/08,14:50,4.1,��쓌,5.0
2022/03/08,15:00,3.9,��쓌,5.8
2022/03/08,15:10,4.0,��쓌,5.2
2022/03/08,15:20,4.1,��쓌,5.6
2022/03/08,15:30,4.1,��쓌,5.0
2022/03/08,15:40,4.1,��쓌,5.7
2022/03/08,15:50,3.8,��쓌,5.8
2022/03/08,16:00,4.0,��쓌,5.5
2022/03/08,16:10,4.1,��쓌,5.1
2022/03/08,16:20,4.1,��쓌,4.6
2022/03/08,16:30,4.1,��쓌,4.6
2022/03/08,16:40,4.0,��쓌,4.2
2022/03/08,16:50,4.0,��쓌,4.1
2022/03/08,17:00,3.8,��쓌,4.3
2022/03/08,17:10,3.9,��,3.8
2022/03/08,17:20,4.1,��쓌,3.8
2022/03/08,17:30,3.9,��쓌,3.4
2022/03/08,17:40,4.0,��,3.0
2022/03/08,17:50,4.1,��,2.8
2022/03/08,18:00,3.9,��,1.9
2022/03/08,18:10,4.2,��,2.9
2022/03/08,18:20,4.1,��,2.6
2022/03/08,18:30,3.9,��,1.7
2022/03/08,18:40,4.2,��,1.5
2022/03/08,18:50,3.8,��쓌,1.5
2022/03/08,19:00,4.0,��쓌,1.7
2022/03/08,19:10,4.0,��,1.5
2022/03/08,19:20,4.1,��,1.7
2022/03/08,19:30,4.0,��쐼,2.6
2022/03/08,19:40,3.9,��쐼,2.2
2022/03/08,19:50,4.2,��,2.2
2022/03/08,20:00,4.0,��쐼,2.3
2022/03/08,20:10,4.0,��쐼,2.6
2022/03/08,20:20,4.0,��쐼,3.0
2022/03/08,20:30,4.0,��쐼,3.8
2022/03/08,20:40,4.0,��쐼,2.9
2022/03/08,20:50,3.9,��쐼,3.3
2022/03/08,21:00,4.2,�쐼,2.6
2022/03/08,21:10,4.0,�쐼,2.0
2022/03/08,21:20,4.2,��쐼,1.2
2022/03/08,21:30,4.1,��쐼,0.9
2022/03/08,21:40,4.1,�쐼,1.7
2022/03/08,21:50,4.0,���쐼,2.3
2022/03/08,22:00,4.2,��,2.5
2022/03/08,22:10,4.0,���k��,4.0
2022/03/08,22:20,4.0,���k��,4.2
2022/03/08,22:30,4.0,���k��,4.3
2022/03/08,22:40,4.0,�k��,4.2
2022/03/08,22:50,4.1,�k��,3.9
2022/03/08,23:00,4.1,�k��,4.7
2022/03/08,23:10,4.3,�k��,4.6
2022/03/08,23:20,4.0,�k��,4.3
2022/03/08,23:30,4.0,���k��,4.5
2022/03/08,23:40,4.0,�k��,4.3
2022/03/08,23:50,3.9,�k��,4.3
